| time (UTC) | temp F | wind direction | speed knots | gust knots | rain 1hr in | rain 24hr in | rain mn in | humidity % | barometer mb |
| 20260503184531 | 59 | 238 | 17.4 | 0.0 | 0.00 | 0.00 | 0.00 | 45 | 982.8 |
| 20260503183538 | 59 | 236 | 18.2 | 0.0 | 0.00 | 0.00 | 0.00 | 45 | 982.8 |
| 20260503181530 | 60 | 235 | 17.4 | 0.0 | 0.00 | 0.00 | 0.00 | 43 | 983.1 |
| 20260503180059 | 59 | 240 | 18.2 | 0.0 | 0.00 | 0.00 | 0.00 | 43 | 983.1 |
| 20260503174528 | 59 | 239 | 18.2 | 0.0 | 0.00 | 0.00 | 0.00 | 45 | 983.5 |
| 20260503173049 | 59 | 238 | 18.2 | 0.0 | 0.00 | 0.00 | 0.00 | 43 | 982.8 |
| 20260503160104 | 57 | 238 | 15.6 | 0.0 | 0.00 | 0.00 | 0.00 | 47 | 982.5 |
| 20260503120104 | 42 | 223 | 7.8 | 0.0 | 0.00 | 0.00 | 0.00 | 62 | 983.9 |
| 20260503081529 | 35 | 187 | 6.1 | 0.0 | 0.00 | 0.00 | 0.00 | 68 | 983.6 |
| 20260503071529 | 35 | 174 | 5.2 | 0.0 | 0.00 | 0.00 | 0.00 | 68 | 983.8 |
| 20260503060105 | 36 | 194 | 5.2 | 0.0 | 0.00 | 0.00 | 0.00 | 65 | 984.7 |
| 20260503054530 | 35 | 189 | 4.3 | 0.0 | 0.00 | 0.00 | 0.00 | 67 | 985.2 |
| 20260503051529 | 35 | 185 | 4.3 | 0.0 | 0.00 | 0.00 | 0.00 | 66 | 985.5 |
| 20260503050056 | 35 | 193 | 4.3 | 0.0 | 0.00 | 0.00 | 0.00 | 66 | 985.5 |
| 20260503044529 | 35 | 191 | 3.5 | 0.0 | 0.00 | 0.00 | 0.00 | 65 | 985.7 |
| 20260503043049 | 36 | 192 | 3.5 | 0.0 | 0.00 | 0.00 | 0.00 | 66 | 985.2 |
| 20260503041529 | 36 | 195 | 3.5 | 0.0 | 0.00 | 0.00 | 0.00 | 66 | 985.2 |
| 20260503040059 | 36 | 203 | 3.5 | 0.0 | 0.00 | 0.00 | 0.00 | 66 | 985.2 |
| 20260503034529 | 37 | 212 | 3.5 | 0.0 | 0.00 | 0.00 | 0.00 | 63 | 986.1 |
| 20260503033050 | 37 | 210 | 3.5 | 0.0 | 0.00 | 0.00 | 0.00 | 65 | 986.4 |
| 20260503031529 | 37 | 205 | 3.5 | 0.0 | 0.00 | 0.00 | 0.00 | 65 | 986.4 |
| 20260503030057 | 38 | 217 | 3.5 | 0.0 | 0.00 | 0.00 | 0.00 | 65 | 986.4 |
| 20260503024529 | 38 | 223 | 3.5 | 0.0 | 0.00 | 0.00 | 0.00 | 60 | 986.9 |
| 20260503023049 | 38 | 225 | 3.5 | 0.0 | 0.00 | 0.00 | 0.00 | 64 | 986.9 |
| 20260503021529 | 39 | 228 | 4.3 | 0.0 | 0.00 | 0.00 | 0.00 | 64 | 986.9 |
| 20260503020056 | 39 | 230 | 4.3 | 0.0 | 0.00 | 0.00 | 0.00 | 64 | 986.9 |
| 20260503014529 | 39 | 237 | 4.3 | 0.0 | 0.00 | 0.00 | 0.00 | 61 | 986.3 |
| 20260503013047 | 40 | 238 | 4.3 | 0.0 | 0.00 | 0.00 | 0.00 | 61 | 986.3 |
| 20260503011529 | 40 | 232 | 4.3 | 0.0 | 0.00 | 0.00 | 0.00 | 61 | 986.3 |
| 20260503010055 | 41 | 236 | 4.3 | 0.0 | 0.00 | 0.00 | 0.00 | 61 | 986.3 |
| 20260503004529 | 42 | 237 | 4.3 | 0.0 | 0.00 | 0.00 | 0.00 | 48 | 987.0 |
| 20260503003043 | 43 | 231 | 3.5 | 0.0 | 0.00 | 0.00 | 0.00 | 48 | 987.3 |
| 20260503001529 | 44 | 245 | 3.5 | 0.0 | 0.00 | 0.00 | 0.00 | 48 | 987.3 |
| 20260503000055 | 45 | 262 | 3.5 | 0.0 | 0.00 | 0.00 | 0.00 | 48 | 987.3 |
| 20260502234530 | 45 | 278 | 5.2 | 0.0 | 0.00 | 0.00 | 0.00 | 41 | 987.0 |
| 20260502233042 | 46 | 266 | 7.0 | 0.0 | 0.00 | 0.00 | 0.00 | 43 | 987.1 |
| 20260502231530 | 46 | 267 | 7.8 | 0.0 | 0.00 | 0.00 | 0.00 | 43 | 987.1 |
| 20260502230056 | 46 | 271 | 8.7 | 0.0 | 0.00 | 0.00 | 0.00 | 43 | 987.1 |
| 20260502224530 | 47 | 273 | 9.6 | 0.0 | 0.00 | 0.00 | 0.00 | 40 | 987.5 |
| 20260502223048 | 47 | 270 | 9.6 | 0.0 | 0.00 | 0.00 | 0.00 | 42 | 988.1 |
| 20260502221530 | 47 | 270 | 9.6 | 0.0 | 0.00 | 0.00 | 0.00 | 42 | 988.1 |
| 20260502220055 | 47 | 270 | 9.6 | 0.0 | 0.00 | 0.00 | 0.00 | 42 | 988.1 |
| 20260502214530 | 47 | 271 | 9.6 | 0.0 | 0.00 | 0.00 | 0.00 | 44 | 988.3 |
| 20260502213048 | 47 | 271 | 8.7 | 0.0 | 0.00 | 0.00 | 0.00 | 39 | 987.9 |
| 20260502211530 | 47 | 266 | 8.7 | 0.0 | 0.00 | 0.00 | 0.00 | 39 | 987.8 |
| 20260502210058 | 47 | 264 | 8.7 | 0.0 | 0.00 | 0.00 | 0.00 | 39 | 987.8 |
| 20260502204530 | 47 | 265 | 8.7 | 0.0 | 0.00 | 0.00 | 0.00 | 42 | 988.2 |
| 20260502203048 | 47 | 267 | 9.6 | 0.0 | 0.00 | 0.00 | 0.00 | 39 | 988.8 |
| 20260502201530 | 47 | 269 | 9.6 | 0.0 | 0.00 | 0.00 | 0.00 | 39 | 988.8 |
| 20260502200055 | 47 | 270 | 9.6 | 0.0 | 0.00 | 0.00 | 0.00 | 39 | 988.8 |
| 20260502194530 | 47 | 271 | 9.6 | 0.0 | 0.00 | 0.00 | 0.00 | 43 | 988.9 |
| 20260502193043 | 47 | 274 | 9.6 | 0.0 | 0.00 | 0.00 | 0.00 | 43 | 988.9 |
| 20260502191530 | 47 | 276 | 9.6 | 0.0 | 0.00 | 0.00 | 0.00 | 43 | 989.0 |
| 20260502190055 | 47 | 276 | 10.4 | 0.0 | 0.00 | 0.00 | 0.00 | 43 | 989.0 |